CW2969 Weather Reports


Display with metric or nautical units.
time (UTC)temp
F
wind
direction
speed
MPH
gust
MPH
rain 1hr
in
rain 24hr
in
rain mn
in
humidity
%
barometer
mb
20260904072513 82 150 0.0 2.0 0.00 0.00 0.00 79 1011.9
20260904071513 82 219 1.0 4.0 0.00 0.00 0.00 78 1012.1
20260904071013 82 207 1.0 4.0 0.00 0.00 0.00 78 1012.1
20260904070013 82 108 2.0 6.0 0.00 0.00 0.00 78 1012.3
20260904065513 82 152 2.0 6.0 0.00 0.00 0.00 78 1012.3
20260904065013 82 165 1.0 6.0 0.00 0.00 0.00 78 1012.3
20260904064513 82 173 3.0 3.0 0.00 0.00 0.00 78 1012.3
20260904063513 82 113 0.0 3.0 0.00 0.00 0.00 77 1012.3
20260904063013 82 117 3.0 4.0 0.00 0.00 0.00 77 1012.3
20260904062512 82 127 0.0 4.0 0.00 0.00 0.00 77 1012.3
20260904062012 82 212 2.0 5.0 0.00 0.00 0.00 77 1012.2
20260904061512 82 161 4.0 5.0 0.00 0.00 0.00 77 1012.2
20260904060012 82 134 4.0 4.0 0.00 0.00 0.00 76 1012.3
20260904055512 82 223 0.0 5.0 0.00 0.00 0.00 76 1012.1
20260904055012 82 238 2.0 5.0 0.00 0.00 0.00 76 1012.2
20260904054512 82 143 1.0 4.0 0.00 0.00 0.00 76 1012.1
20260904054012 82 116 1.0 8.0 0.00 0.00 0.00 76 1012.1
20260904053512 83 260 1.0 9.0 0.00 0.00 0.00 76 1012.0
20260904052011 83 205 4.0 10.0 0.00 0.00 0.00 75 1012.0
20260904051012 83 140 0.0 4.0 0.00 0.00 0.00 75 1011.9
20260904050011 83 138 5.0 5.0 0.00 0.00 0.00 75 1011.9
20260904045511 83 157 3.0 4.0 0.00 0.00 0.00 75 1011.9
20260904045011 83 126 3.0 4.0 0.00 0.00 0.00 75 1011.9
20260904044511 83 213 2.0 4.0 0.00 0.00 0.00 75 1012.0
20260904043511 83 126 2.0 8.0 0.00 0.00 0.00 74 1011.8
20260904043011 83 153 1.0 8.0 0.00 0.00 0.00 74 1011.9
20260904042511 83 143 1.0 5.0 0.00 0.00 0.00 74 1011.9
20260904042011 83 138 0.0 6.0 0.00 0.00 0.00 74 1011.9
20260904041511 83 49 1.0 11.0 0.00 0.00 0.00 74 1011.9
20260904041011 83 129 5.0 11.0 0.00 0.00 0.00 73 1011.9
20260904040511 83 122 4.0 10.0 0.00 0.00 0.00 73 1011.8
20260904040011 83 277 1.0 6.0 0.00 0.00 0.00 73 1011.8
20260904035511 83 150 3.0 9.0 0.00 0.00 0.00 73 1011.6
20260904034511 83 115 3.0 8.0 0.00 0.00 0.00 73 1011.8
20260904034011 84 167 4.0 8.0 0.00 0.00 0.00 72 1011.8
20260904033510 84 136 1.0 5.0 0.00 0.00 0.00 72 1011.7
20260904033010 84 134 5.0 5.0 0.00 0.00 0.00 72 1011.6
20260904032510 84 110 1.0 4.0 0.00 0.00 0.00 71 1011.6
20260904032011 84 135 4.0 12.0 0.00 0.00 0.00 71 1011.5
20260904030511 84 115 2.0 6.0 0.00 0.00 0.00 70 1011.5
20260904030010 84 98 1.0 8.0 0.00 0.00 0.00 70 1011.3
20260904025010 85 96 6.0 9.0 0.00 0.00 0.00 69 1011.1
20260904024510 85 119 1.0 9.0 0.00 0.00 0.00 69 1011.2
20260904024010 85 86 2.0 9.0 0.00 0.00 0.00 68 1011.2
20260904023510 85 142 1.0 6.0 0.00 0.00 0.00 68 1011.2
20260904023010 85 111 3.0 6.0 0.00 0.00 0.00 68 1011.1
20260904022510 85 120 1.0 9.0 0.00 0.00 0.00 67 1011.0
20260904022009 85 95 3.0 9.0 0.00 0.00 0.00 67 1010.9
20260904021509 86 141 4.0 10.0 0.00 0.00 0.00 66 1011.0
20260904021010 86 121 7.0 10.0 0.00 0.00 0.00 66 1010.9
20260904020509 86 132 5.0 8.0 0.00 0.00 0.00 65 1010.9
20260904020009 86 157 8.0 8.0 0.00 0.00 0.00 65 1010.8
20260904015509 86 68 1.0 8.0 0.00 0.00 0.00 65 1010.6
20260904015009 86 135 3.0 8.0 0.00 0.00 0.00 64 1010.4
20260904014509 87 112 1.0 7.0 0.00 0.00 0.00 64 1010.2
20260904014009 87 134 7.0 10.0 0.00 0.00 0.00 64 1010.2
20260904013509 87 170 5.0 10.0 0.00 0.00 0.00 63 1010.1
20260904013009 87 133 7.0 10.0 0.00 0.00 0.00 63 1010.1
20260904012508 87 104 2.0 10.0 0.00 0.00 0.00 63 1010.0
20260904011508 87 128 5.0 8.0 0.00 0.00 0.00 62 1010.0
20260904011009 87 123 1.0 11.0 0.00 0.00 0.00 62 1010.0
20260904010008 88 202 7.0 10.0 0.00 0.00 0.00 61 1010.1
20260904005508 88 108 10.0 10.0 0.00 0.00 0.00 61 1010.0
20260904005009 88 124 2.0 16.0 0.00 0.00 0.00 60 1010.0
20260904004508 88 101 6.0 16.0 0.00 0.00 0.00 60 1010.1
20260904004008 89 132 1.0 17.0 0.00 0.00 0.00 60 1010.1
20260904003508 89 136 7.0 17.0 0.00 0.00 0.00 60 1010.0
20260904003008 89 90 6.0 14.0 0.00 0.00 0.00 59 1009.9
20260904002508 89 156 11.0 11.0 0.00 0.00 0.00 59 1009.9
20260904002008 90 170 6.0 11.0 0.00 0.00 0.00 59 1010.1
20260904001508 90 130 4.0 12.0 0.00 0.00 0.00 59 1010.0
20260904001008 90 179 4.0 12.0 0.00 0.00 0.00 59 1010.0
20260904000508 90 256 3.0 13.0 0.00 0.00 0.00 58 1009.9
20260903235508 91 114 2.0 9.0 0.00 0.00 0.00 58 1009.8
20260903235007 91 147 5.0 15.0 0.00 0.00 0.00 58 1009.8
20260903234507 91 132 3.0 15.0 0.00 0.00 0.00 58 1009.8
20260903234008 91 121 1.0 9.0 0.00 0.00 0.00 57 1009.8
20260903233508 91 138 3.0 8.0 0.00 0.00 0.00 57 1009.7
20260903233007 92 209 3.0 9.0 0.00 0.00 0.00 57 1009.6
20260903232507 92 141 9.0 14.0 0.00 0.00 0.00 56 1009.5
20260903232008 92 195 5.0 14.0 0.00 0.00 0.00 55 1009.6
20260903231508 93 123 2.0 10.0 0.00 0.00 0.00 57 1009.6
20260903231007 92 120 7.0 13.0 0.00 0.00 0.00 57 1009.5
20260903225507 92 123 5.0 12.0 0.00 0.00 0.00 56 1009.4
20260903225008 93 61 8.0 13.0 0.00 0.00 0.00 56 1009.3
20260903224507 93 112 7.0 13.0 0.00 0.00 0.00 55 1009.3
20260903224007 94 83 12.0 13.0 0.00 0.00 0.00 55 1009.2
20260903223007 95 128 11.0 15.0 0.00 0.00 0.00 49 1009.2
20260903222507 96 163 4.0 16.0 0.00 0.00 0.00 47 1009.1
20260903222007 96 156 7.0 16.0 0.00 0.00 0.00 47 1009.0
20260903221507 96 80 2.0 15.0 0.00 0.00 0.00 47 1008.9
20260903221007 96 109 4.0 15.0 0.00 0.00 0.00 47 1008.9
20260903220006 96 86 8.0 8.0 0.00 0.00 0.00 47 1008.9
20260903215507 97 148 5.0 7.0 0.00 0.00 0.00 46 1009.0
20260903215006 97 360 2.0 12.0 0.00 0.00 0.00 46 1009.0
20260903214006 98 86 8.0 14.0 0.00 0.00 0.00 45 1009.0
20260903213507 99 100 3.0 15.0 0.00 0.00 0.00 45 1009.0
20260903212506 100 101 2.0 10.0 0.00 0.00 0.00 43 1008.9
20260903212006 100 155 3.0 10.0 0.00 0.00 0.00 44 1008.9
20260903211506 99 169 4.0 4.0 0.00 0.00 0.00 44 1008.9
20260903211006 99 192 1.0 3.0 0.00 0.00 0.00 45 1009.0
20260903210506 99 111 1.0 4.0 0.00 0.00 0.00 45 1009.2
20260903205506 99 141 1.0 12.0 0.00 0.00 0.00 45 1009.2
20260903205006 99 126 4.0 12.0 0.00 0.00 0.00 45 1009.4
20260903204506 99 96 1.0 7.0 0.00 0.00 0.00 46 1009.3
20260903204006 99 130 7.0 8.0 0.00 0.00 0.00 46 1009.5
20260903203506 99 199 5.0 8.0 0.00 0.00 0.00 46 1009.5
20260903203006 99 188 1.0 2.0 0.00 0.00 0.00 46 1009.6
20260903202506 99 134 1.0 3.0 0.00 0.00 0.00 47 1009.7
20260903202006 99 153 3.0 3.0 0.00 0.00 0.00 47 1009.8
20260903201506 99 90 1.0 6.0 0.00 0.00 0.00 47 1009.8
20260903201006 99 72 1.0 12.0 0.00 0.00 0.00 47 1009.8
20260903200506 99 159 5.0 12.0 0.00 0.00 0.00 47 1009.8
20260903195505 100 112 7.0 13.0 0.00 0.00 0.00 47 1010.0
20260903195006 100 119 11.0 13.0 0.00 0.00 0.00 47 1010.0
20260903194506 100 172 2.0 8.0 0.00 0.00 0.00 47 1010.0
20260903194005 100 130 4.0 8.0 0.00 0.00 0.00 47 1010.1
20260903193505 100 86 4.0 4.0 0.00 0.00 0.00 48 1010.2
20260903193005 99 284 2.0 8.0 0.00 0.00 0.00 48 1010.3
20260903192505 99 138 8.0 8.0 0.00 0.00 0.00 49 1010.4
20260903191005 98 19 3.0 11.0 0.00 0.00 0.00 50 1010.5
20260903190505 97 148 6.0 11.0 0.00 0.00 0.00 50 1010.6
20260903190005 97 142 6.0 7.0 0.00 0.00 0.00 51 1010.8
20260903185505 97 119 1.0 3.0 0.00 0.00 0.00 51 1010.8
20260903184004 97 140 4.0 9.0 0.00 0.00 0.00 53 1011.1
20260903183504 96 297 2.0 4.0 0.00 0.00 0.00 54 1011.2
20260903183005 96 324 2.0 9.0 0.00 0.00 0.00 54 1011.3
20260903182505 95 253 4.0 9.0 0.00 0.00 0.00 55 1011.3
20260903182004 95 137 7.0 9.0 0.00 0.00 0.00 56 1011.3
20260903181504 95 170 4.0 8.0 0.00 0.00 0.00 56 1011.5
20260903180504 95 194 2.0 8.0 0.00 0.00 0.00 56 1011.6
20260903180004 94 107 4.0 5.0 0.00 0.00 0.00 57 1011.7
20260903175504 95 244 4.0 5.0 0.00 0.00 0.00 56 1011.7
20260903175004 94 169 1.0 11.0 0.00 0.00 0.00 57 1011.8
20260903174504 94 155 8.0 11.0 0.00 0.00 0.00 57 1011.8
20260903174004 94 205 4.0 5.0 0.00 0.00 0.00 59 1011.8
20260903173504 94 270 2.0 9.0 0.00 0.00 0.00 59 1011.9
20260903173004 94 104 8.0 9.0 0.00 0.00 0.00 59 1011.9
20260903172504 94 290 2.0 7.0 0.00 0.00 0.00 60 1012.0
20260903172004 93 134 4.0 4.0 0.00 0.00 0.00 61 1012.0
20260903171503 93 325 2.0 9.0 0.00 0.00 0.00 61 1012.2
20260903171003 93 180 5.0 10.0 0.00 0.00 0.00 61 1012.2
20260903170033 92 216 4.0 17.0 0.00 0.00 0.00 62 1012.2
20260903165503 92 233 2.0 5.0 0.00 0.00 0.00 63 1012.3
20260903165003 92 115 4.0 10.0 0.00 0.00 0.00 63 1012.3
20260903164503 92 252 4.0 10.0 0.00 0.00 0.00 63 1012.4
20260903164004 91 148 4.0 8.0 0.00 0.00 0.00 64 1012.4
20260903163533 91 239 3.0 8.0 0.00 0.00 0.00 64 1012.4
20260903163033 91 171 2.0 8.0 0.00 0.00 0.00 65 1012.5
20260903162033 90 205 1.0 8.0 0.00 0.00 0.00 67 1012.5
20260903161033 90 292 3.0 10.0 0.00 0.00 0.00 68 1012.6
20260903160533 90 119 2.0 8.0 0.00 0.00 0.00 69 1012.4
20260903160033 89 281 0.0 6.0 0.00 0.00 0.00 69 1012.3
20260903155533 89 209 2.0 6.0 0.00 0.00 0.00 69 1012.4
20260903154533 88 254 1.0 7.0 0.00 0.00 0.00 70 1012.5
20260903154032 88 223 3.0 11.0 0.00 0.00 0.00 71 1012.4
20260903153532 87 196 3.0 11.0 0.00 0.00 0.00 72 1012.4
20260903152032 86 171 2.0 5.0 0.00 0.00 0.00 73 1012.4
20260903151532 86 274 3.0 5.0 0.00 0.00 0.00 74 1012.5
20260903151032 86 293 1.0 7.0 0.00 0.00 0.00 74 1012.5
20260903150532 86 135 3.0 12.0 0.00 0.00 0.00 73 1012.4
20260903150032 86 234 5.0 12.0 0.00 0.00 0.00 73 1012.4
20260903145532 86 306 3.0 8.0 0.00 0.00 0.00 74 1012.4
20260903145032 86 187 2.0 7.0 0.00 0.00 0.00 74 1012.4
20260903144532 86 267 4.0 7.0 0.00 0.00 0.00 74 1012.4
20260903144032 86 28 3.0 7.0 0.00 0.00 0.00 75 1012.4
20260903143532 86 162 4.0 7.0 0.00 0.00 0.00 75 1012.3
20260903143032 86 212 4.0 9.0 0.00 0.00 0.00 75 1012.3
20260903142532 85 171 5.0 9.0 0.00 0.00 0.00 75 1012.2
20260903142031 85 270 2.0 7.0 0.00 0.00 0.00 76 1012.3
20260903141532 85 236 2.0 13.0 0.00 0.00 0.00 76 1012.3
20260903141031 85 226 5.0 13.0 0.00 0.00 0.00 76 1012.4
20260903140531 84 309 2.0 10.0 0.00 0.00 0.00 77 1012.4
20260903140031 84 128 2.0 5.0 0.00 0.00 0.00 77 1012.4
20260903135031 84 269 1.0 7.0 0.00 0.00 0.00 78 1012.5
20260903134531 84 307 2.0 9.0 0.00 0.00 0.00 78 1012.5
20260903134031 84 159 5.0 9.0 0.00 0.00 0.00 78 1012.5
20260903133031 83 236 3.0 7.0 0.00 0.00 0.00 79 1012.5
20260903132531 83 228 2.0 7.0 0.00 0.00 0.00 79 1012.6
20260903132031 83 130 3.0 7.0 0.00 0.00 0.00 79 1012.6
20260903131531 83 212 0.0 4.0 0.00 0.00 0.00 80 1012.5
20260903131031 83 201 2.0 5.0 0.00 0.00 0.00 79 1012.5
20260903130531 83 226 4.0 5.0 0.00 0.00 0.00 80 1012.5
20260903130031 82 247 1.0 5.0 0.00 0.00 0.00 80 1012.5
20260903125531 82 200 2.0 5.0 0.00 0.00 0.00 80 1012.5
20260903124530 82 150 0.0 5.0 0.00 0.00 0.00 80 1012.4
20260903124031 82 184 3.0 5.0 0.00 0.00 0.00 80 1012.3
20260903123531 82 223 2.0 3.0 0.00 0.00 0.00 80 1012.3
20260903123030 82 161 2.0 3.0 0.00 0.00 0.00 80 1012.2
20260903122530 82 240 2.0 5.0 0.00 0.00 0.00 80 1012.2
20260903122031 82 199 3.0 5.0 0.00 0.00 0.00 80 1012.2
20260903121031 82 228 3.0 6.0 0.00 0.00 0.00 80 1012.0
20260903120530 82 176 0.0 6.0 0.00 0.00 0.00 80 1012.1
20260903120030 82 205 2.0 6.0 0.00 0.00 0.00 80 1012.1
20260903115530 82 283 2.0 4.0 0.00 0.00 0.00 80 1012.1
20260903115030 82 212 1.0 5.0 0.00 0.00 0.00 80 1012.1
20260903114530 82 159 4.0 5.0 0.00 0.00 0.00 80 1012.1
20260903114030 82 210 2.0 6.0 0.00 0.00 0.00 80 1012.0
20260903113530 82 296 1.0 6.0 0.00 0.00 0.00 80 1011.9
20260903112530 82 208 3.0 5.0 0.00 0.00 0.00 80 1011.9
20260903112030 82 205 3.0 5.0 0.00 0.00 0.00 80 1011.9
20260903111530 82 210 0.0 4.0 0.00 0.00 0.00 80 1011.9
20260903111030 82 169 4.0 4.0 0.00 0.00 0.00 80 1011.9
20260903110030 82 292 0.0 5.0 0.00 0.00 0.00 80 1012.0
20260903105530 82 143 3.0 5.0 0.00 0.00 0.00 80 1012.0
20260903105030 82 180 3.0 5.0 0.00 0.00 0.00 80 1011.9
20260903104530 82 234 4.0 5.0 0.00 0.00 0.00 80 1011.9
20260903104029 82 211 2.0 7.0 0.00 0.00 0.00 80 1011.8
20260903103529 82 148 1.0 7.0 0.00 0.00 0.00 80 1011.7
20260903103029 82 125 0.0 7.0 0.00 0.00 0.00 80 1011.7
20260903102529 82 162 1.0 7.0 0.00 0.00 0.00 80 1011.7
20260903102029 82 198 3.0 4.0 0.00 0.00 0.00 80 1011.8
20260903100529 82 130 3.0 4.0 0.00 0.00 0.00 80 1011.7
20260903100029 82 203 2.0 4.0 0.00 0.00 0.00 80 1011.7
20260903095029 82 165 1.0 4.0 0.00 0.00 0.00 80 1011.8
20260903094529 82 194 3.0 4.0 0.00 0.00 0.00 80 1011.9
20260903094029 82 259 1.0 4.0 0.00 0.00 0.00 80 1011.9
20260903093529 82 120 2.0 4.0 0.00 0.00 0.00 80 1011.9
20260903093029 82 159 0.0 4.0 0.00 0.00 0.00 80 1012.0
20260903092029 82 209 2.0 3.0 0.00 0.00 0.00 79 1012.0
20260903091529 82 202 1.0 2.0 0.00 0.00 0.00 79 1012.1
20260903091030 82 165 0.0 3.0 0.00 0.00 0.00 79 1011.9
20260903090529 82 209 2.0 7.0 0.00 0.00 0.00 79 1012.1
20260903090028 82 129 7.0 7.0 0.00 0.00 0.00 79 1012.1
20260903085528 82 208 4.0 6.0 0.00 0.00 0.00 79 1012.1
20260903085028 82 202 1.0 5.0 0.00 0.00 0.00 79 1012.1
20260903084528 82 203 3.0 5.0 0.00 0.00 0.00 78 1012.1
20260903084028 82 50 2.0 7.0 0.00 0.00 0.00 78 1012.0
20260903083528 82 161 1.0 7.0 0.00 0.00 0.00 78 1012.0
20260903083028 82 169 1.0 3.0 0.00 0.00 0.00 78 1012.0
20260903082528 83 213 1.0 6.0 0.00 0.00 0.00 78 1012.0
20260903082028 83 241 2.0 6.0 0.00 0.00 0.00 78 1012.0
20260903081528 83 226 0.0 7.0 0.00 0.00 0.00 78 1012.0
20260903081028 83 113 0.0 7.0 0.00 0.00 0.00 77 1011.9
20260903080528 83 236 1.0 5.0 0.00 0.00 0.00 77 1012.0
20260903080028 83 217 4.0 5.0 0.00 0.00 0.00 77 1012.1
20260903074528 83 170 0.0 5.0 0.00 0.00 0.00 76 1012.2
20260903074028 83 128 0.0 5.0 0.00 0.00 0.00 76 1012.2